[Date Prev][Date Next][Thread Prev][Thread Next] - [Date Index][Thread Index][Author Index]

2 Line ISS Keps 7-20



ISS
1 25544U 98067A   02201.15739442  .00016499  00000-0  21219-3 0  6781
2 25544  51.6355 247.4452 0008756  18.3034  30.3407 15.59183491209172


----
Via the sarex mailing list at AMSAT.ORG courtesy of AMSAT-NA.
To unsubscribe, send "unsubscribe sarex" to Majordomo@amsat.org



AMSAT Top AMSAT Home